[[{"header":{"parameterUnit":"m.s-1","parameterCategory":1,"la1":30.2991,"la2":30.254,"lo1":-89.0895,"lo2":-89.0444,"dy":0.0017,"dx":0.0017,"nx":28,"ny":28,"refTime":"2024-06-16T09:00:00:Z","depth":0,"parameterNumber":2,"parameterNumberName":"U-component_of_WINDS"},"data":[0,0,0,0,0,0,0,0,0,0,0,0,0,0,0,0,0,0,0,0,0,0,0,0,0,0,0,0,0,0,0,0,0,0,0,0,0,0,0,0,0,0,0,0,0,0,0,0,0,0,0,0,0,0,0,0,0,0,-6.9934,-6.9935,0,-6.9967,-6.9967,-6.9968,-6.9822,-6.9817,-6.9813,-6.9809,-6.9838,-6.9843,-6.9848,0,0,0,0,0,0,0,0,0,0,0,0,0,-6.9741,-6.9746,-6.9934,-6.9935,-6.9935,-6.9967,-6.9967,-6.9968,-6.9822,-6.9817,-6.9812,-6.9807,-6.9837,-6.9842,-6.9848,0,0,0,0,0,0,0,0,0,0,0,0,0,-6.9805,-6.9747,-6.9934,-6.9866,-6.9861,-6.9967,-6.9967,-6.9968,-6.9823,-6.9817,-6.9811,-6.9805,-6.9835,-6.9842,-6.9849,-7.0021,0,0,-6.9871,-6.9874,0,0,0,0,0,0,0,0,-6.9801,-6.9812,-6.9876,-6.9871,-6.9865,-6.9884,-6.991,-6.9985,-6.9825,-6.9837,-6.9809,-6.9802,-6.9858,-6.9863,-6.9883,-7.0022,-7.0023,-6.9871,-6.9876,-6.9879,-6.9881,0,0,0,0,0,0,0,-6.9797,-6.981,-6.9947,-6.9877,-6.987,-6.9833,-6.9835,-6.9924,-6.9883,-6.9836,-6.9825,-6.9831,-6.9854,-6.9877,-6.9883,-7.0024,-6.9871,-6.9877,-6.9882,-6.9885,-7.0302,-7.0309,0,0,0,0,0,0,-6.9802,-6.9807,-6.9946,-6.9948,-6.9817,-6.9842,-6.9844,-6.9884,-6.9882,-6.9875,-6.9837,-6.9825,-6.9868,-6.9875,-6.9883,-7.0081,-6.9879,-6.9885,-6.9889,-7.0295,-7.0304,-7.0311,0,0,0,0,0,0,-6.9799,-6.9816,-6.9945,-6.9875,-6.9888,-6.9852,-6.9898,-6.9888,-6.991,-6.9883,-6.9874,-6.9868,-6.9863,-6.9873,-6.9987,-7.008,-6.9888,-6.9895,-7.0287,-7.0298,-7.0307,-7.048,0,0,0,0,0,0,-6.9794,-6.9816,-6.9881,-6.9877,-6.9893,-7.005,-6.9904,-6.9893,-6.9924,-6.9908,-6.9909,-6.9903,-6.9859,-6.9977,-6.9994,-7.0086,-6.9901,-7.0279,-7.0292,-7.0304,-7.0465,-7.0495,-7.052,0,0,0,0,0,-6.9788,-6.9928,-6.9885,-6.9903,-6.9974,-7.0055,-7.0064,-7.0011,-6.9932,-6.9996,-6.9979,-6.9903,-7.0069,-6.999,-7.0008,-7.0104,-7.0273,-7.0288,-7.0303,-7.0453,-7.0489,-7.0519,0,0,0,0,0,0,-6.9942,-6.9926,-6.9879,-7.0023,-7.0042,-7.003,-7.011,-7.005,-7.0091,-7.0074,-7.0006,-7.0007,-7.0132,-7.013,-7.0043,-7.0269,-7.0156,-7.0176,-7.0265,-7.0298,-7.0325,-7.032,-6.9906,0,0,0,0,0,-6.9993,-7.0062,-7.0044,-7.0173,-7.0185,-7.0147,-7.018,-7.0138,-7.0154,-7.0161,-7.0151,-7.0169,-7.0224,-7.0262,-7.0312,-7.0467,-7.0463,-7.0541,-7.0568,-7.0591,-7.0607,-7.0685,-7.0719,-7.0362,-7.0361,-7.0361,0,0,-7.0099,-7.0099,-7.0146,-7.0204,-7.0213,-7.0284,-7.0154,-7.0235,-7.0285,-7.0172,-7.0278,-7.0273,-7.0288,-7.0423,-7.0481,-7.0424,-7.0705,-7.061,-7.0628,-7.0632,-7.0705,-7.0738,-7.0768,-7.0372,-7.037,-7.0368,0,0,-7.0326,-7.0335,-7.0441,-7.0454,-7.0471,-7.0445,-7.0472,-7.047,-7.0462,-7.0569,-7.0485,-7.0544,-7.0642,-7.0655,-7.0675,-7.091,-7.0841,-7.0929,-7.1068,-7.1145,-7.1173,-7.1198,-7.1278,-7.1308,-7.0946,-7.0947,-7.0947,0,-7.0454,-7.0558,-7.0503,-7.0589,-7.0616,-7.052,-7.0626,-7.0641,-7.0674,-7.0693,-7.063,-7.075,-7.0754,-7.0889,-7.0946,-7.0967,-7.0992,-7.0925,-7.1174,-7.1198,-7.122,-7.1295,-7.1326,-7.0957,-7.0956,-7.0954,-7.0954,0,-7.0713,-7.0787,-7.0871,-7.0905,-7.0942,-7.1038,-7.0996,-7.1041,-7.0997,-7.0977,-7.1086,-7.1087,-7.1134,-7.1165,-7.1122,-7.1294,-7.1257,-7.1186,-7.1071,-7.1265,-7.1334,-7.1363,-7.0971,-7.0968,-7.0965,-7.0962,0,0,-7.1033,-7.1038,-7.107,-7.1083,-7.1096,-7.1151,-7.1243,-7.1291,-7.1328,-7.1355,-7.1428,-7.1514,-7.1448,-7.1471,-7.1429,-7.1498,-7.168,-7.1417,-7.1417,-7.1462,-7.1865,-7.1915,-7.1949,-7.1637,-7.1642,-7.1646,-7.1862,0,-7.1252,-7.1409,-7.1363,-7.152,-7.1585,-7.1497,-7.1576,-7.1592,-7.1577,-7.163,-7.1613,-7.1673,-7.1584,-7.1596,-7.1661,-7.1644,-7.1759,-7.1629,-7.17,-7.1703,-7.1694,-7.1986,-7.2039,-7.2242,-7.1889,-7.1894,-7.1897,0,-7.1527,-7.1566,-7.1729,-7.1731,-7.1756,-7.1829,-7.1868,-7.1921,-7.1937,-7.1921,-7.1948,-7.1893,-7.1981,-7.1871,-7.1989,-7.1902,-7.1929,-7.1926,-7.1932,-7.1932,-7.1808,-7.1989,-7.2306,-7.2335,-7.194,-7.1937,-7.1934,0,-7.1739,-7.1832,-7.1941,-7.1957,-7.1962,-7.2014,-7.2019,-7.2029,-7.2061,-7.2096,-7.2115,-7.216,-7.2184,-7.2219,-7.2177,-7.2101,-7.2301,-7.2188,-7.2287,-7.2288,-7.2328,-7.2325,-7.2649,-7.2356,-7.2355,-7.2355,-7.2354,0,-7.1985,-7.2087,-7.2036,-7.2103,-7.2214,-7.2162,-7.2273,-7.2268,-7.2278,-7.234,-7.2268,-7.2328,-7.2271,-7.2326,-7.2294,-7.2395,-7.2407,-7.2395,-7.2384,-7.2398,-7.2399,-7.2411,-7.2394,-7.2363,-7.2361,-7.2359,-7.2358,0,-7.2238,-7.2208,-7.2321,-7.2318,-7.232,-7.2402,-7.2398,-7.2458,-7.244,-7.252,-7.2536,-7.2506,-7.2566,-7.253,-7.2591,-7.257,-7.27,-7.2673,-7.2695,-7.2685,-7.2785,-7.2775,-7.3123,-7.3165,-7.285,-7.2853,-7.2856,0,-7.2394,-7.2471,-7.2477,-7.2514,-7.2524,-7.2586,-7.2618,-7.257,-7.2606,-7.2631,-7.2688,-7.2743,-7.2783,-7.2884,-7.2867,-7.2913,-7.2883,-7.3002,-7.2889,-7.2901,-7.2879,-7.2873,-7.2879,-7.3023,-7.3027,-7.303,-7.3032,0,-7.2673,-7.2655,-7.2705,-7.2751,-7.2792,-7.2825,-7.2851,-7.2886,-7.2838,-7.2882,-7.2944,-7.2976,-7.304,-7.3094,-7.3133,-7.3136,-7.3076,-7.3069,-7.3094,-7.3106,-7.3114,-7.3107,-7.2751,-7.306,-7.3057,-7.3055,-7.3054,-7.3053,-7.2879,-7.2942,-7.2956,-7.3014,-7.303,-7.3057,-7.3113,-7.3103,-7.3154,-7.3202,-7.3171,-7.3243,-7.3257,-7.3304,-7.3315,-7.337,-7.3321,-7.3358,-7.3366,-7.3375,-7.3386,-7.3111,-7.3377,-7.3376,-7.3376,-7.3375,-7.3374,0,-7.315,-7.3155,-7.321,-7.325,-7.3295,-7.3239,-7.3266,-7.3306,-7.3371,-7.339,-7.3433,-7.3503,-7.3556,-7.3544,-7.3591,-7.3637,-7.361,-7.3651,-7.3644,-7.3645,-7.3429,-7.3401,-7.3671,-7.3671,-7.3671,-7.3671,-7.3671,-7.3671,-7.3296,-7.3399,-7.3383,-7.3493,-7.3497,-7.3568,-7.3588,-7.3612,-7.3627,-7.3709,-7.3753,-7.3746,-7.3752,-7.3799,-7.3845,-7.384,-7.3858,-7.3908,-7.3893,-7.369,-7.366,-7.3632,-7.3605,-7.3914,-7.3914,-7.4103,-7.4104,-7.4106]},{"header":{"parameterUnit":"m.s-1","parameterCategory":1,"la1":30.2991,"la2":30.254,"lo1":-89.0895,"lo2":-89.0444,"dy":0.0017,"dx":0.0017,"nx":28,"ny":28,"refTime":"2024-06-16T09:00:00:Z","depth":0,"parameterNumber":3,"parameterNumberName":"V-component_of_WINDS"},"data":[0,0,0,0,0,0,0,0,0,0,0,0,0,0,0,0,0,0,0,0,0,0,0,0,0,0,0,0,0,0,0,0,0,0,0,0,0,0,0,0,0,0,0,0,0,0,0,0,0,0,0,0,0,0,0,0,0,0,2.6005,2.6006,0,2.6097,2.6098,2.6099,2.6069,2.6067,2.6065,2.6063,2.6156,2.616,2.6164,0,0,0,0,0,0,0,0,0,0,0,0,0,2.5802,2.5806,2.6005,2.6006,2.6007,2.6097,2.6098,2.61,2.607,2.6067,2.6065,2.6063,2.6154,2.6159,2.6164,0,0,0,0,0,0,0,0,0,0,0,0,0,2.5892,2.5807,2.6005,2.6003,2.6004,2.6097,2.6098,2.61,2.607,2.6067,2.6064,2.6061,2.6153,2.6159,2.6165,2.6264,0,0,2.6185,2.6188,0,0,0,0,0,0,0,0,2.5887,2.5899,2.6002,2.6003,2.6004,2.6069,2.6061,2.6155,2.6071,2.6045,2.6063,2.606,2.6129,2.6137,2.6161,2.6269,2.6273,2.6185,2.6189,2.6192,2.6194,0,0,0,0,0,0,0,2.5881,2.5895,2.6041,2.6004,2.6005,2.5998,2.6007,2.6078,2.6102,2.6047,2.6045,2.6056,2.6129,2.6155,2.6163,2.6274,2.6185,2.6191,2.6195,2.6198,2.647,2.6473,0,0,0,0,0,0,2.5874,2.589,2.6038,2.6044,2.5937,2.6004,2.6014,2.6051,2.6102,2.6106,2.6059,2.6055,2.6145,2.6155,2.6166,2.6286,2.6192,2.6198,2.6202,2.6467,2.6471,2.6475,0,0,0,0,0,0,2.587,2.5887,2.6035,2.5967,2.5985,2.601,2.6052,2.6054,2.608,2.6111,2.6115,2.6081,2.6143,2.6157,2.6241,2.6289,2.6201,2.6207,2.6463,2.6468,2.6473,2.6527,0,0,0,0,0,0,2.5864,2.5886,2.5924,2.5968,2.5989,2.6108,2.6055,2.6058,2.6092,2.6087,2.6132,2.6137,2.6142,2.6231,2.6247,2.6296,2.6212,2.6459,2.6465,2.6471,2.6521,2.6533,2.6544,0,0,0,0,0,2.5857,2.5934,2.5926,2.5944,2.6037,2.6111,2.6123,2.6128,2.6096,2.6134,2.6154,2.6135,2.6282,2.624,2.6258,2.631,2.6455,2.6463,2.6471,2.6516,2.6531,2.6544,0,0,0,0,0,0,2.5894,2.594,2.5931,2.6025,2.6065,2.6106,2.6154,2.6143,2.6191,2.6185,2.6189,2.6199,2.6286,2.6306,2.6259,2.6409,2.6364,2.6375,2.6392,2.6407,2.6418,2.6411,2.6217,0,0,0,0,0,2.5913,2.597,2.6007,2.6087,2.6108,2.6128,2.616,2.6161,2.6201,2.6217,2.6243,2.6283,2.6338,2.6374,2.6426,2.6525,2.6535,2.6569,2.6581,2.659,2.6599,2.6654,2.6671,2.6499,2.6499,2.6499,0,0,2.5953,2.5986,2.6021,2.6096,2.6126,2.6185,2.6141,2.6205,2.6249,2.6227,2.6308,2.6329,2.6373,2.6466,2.6507,2.6485,2.6649,2.66,2.6607,2.6611,2.6664,2.668,2.6694,2.6505,2.6504,2.6503,0,0,2.6056,2.6086,2.6157,2.6189,2.6237,2.625,2.6267,2.6311,2.6324,2.6406,2.6391,2.6444,2.6538,2.6571,2.66,2.6719,2.6704,2.6736,2.6795,2.6849,2.6862,2.6874,2.6917,2.6932,2.6746,2.6746,2.6746,0,2.6099,2.6187,2.6194,2.626,2.6293,2.6278,2.635,2.6381,2.6442,2.6466,2.6441,2.6561,2.6589,2.669,2.6719,2.6743,2.6763,2.673,2.686,2.6872,2.6883,2.6924,2.694,2.6749,2.6749,2.6749,2.6748,0,2.6239,2.6301,2.6352,2.6413,2.6453,2.6521,2.6538,2.6578,2.6576,2.6592,2.6677,2.6712,2.6771,2.6796,2.6794,2.6897,2.6881,2.6859,2.6812,2.6903,2.6941,2.6957,2.6754,2.6753,2.6752,2.6751,0,0,2.6364,2.6431,2.645,2.6478,2.6531,2.6579,2.6648,2.6707,2.6741,2.6785,2.6843,2.6925,2.6905,2.6938,2.694,2.6988,2.7081,2.6959,2.696,2.698,2.7196,2.7212,2.723,2.7072,2.7075,2.7077,2.7192,0,2.6471,2.6591,2.6601,2.6709,2.6767,2.6756,2.6815,2.6854,2.6873,2.6924,2.6944,2.7002,2.6971,2.6991,2.7038,2.7059,2.7124,2.7051,2.7125,2.7127,2.7113,2.725,2.7267,2.7374,2.7207,2.721,2.7212,0,2.661,2.6661,2.6775,2.6823,2.6847,2.6901,2.6957,2.7007,2.7052,2.7062,2.7101,2.7098,2.7168,2.7122,2.722,2.717,2.7201,2.7217,2.7221,2.7227,2.7174,2.7259,2.7408,2.7423,2.7235,2.7234,2.7232,0,2.669,2.6786,2.6868,2.6893,2.695,2.6988,2.7013,2.7056,2.7092,2.7142,2.7165,2.7222,2.7253,2.7298,2.7311,2.7275,2.7408,2.7362,2.7418,2.7418,2.7445,2.7443,2.76,2.7467,2.7467,2.7467,2.7466,0,2.6807,2.6878,2.6905,2.6955,2.7034,2.7045,2.7123,2.7146,2.7185,2.7239,2.7233,2.7284,2.7299,2.7353,2.7363,2.7443,2.7457,2.7467,2.7469,2.7467,2.7466,2.7486,2.7478,2.7471,2.747,2.7469,2.7468,0,2.6908,2.6929,2.7017,2.7065,2.7079,2.7135,2.7176,2.7225,2.7243,2.7313,2.733,2.7358,2.7422,2.744,2.7516,2.7523,2.7617,2.7612,2.7602,2.7601,2.7656,2.765,2.783,2.7855,2.7707,2.7708,2.771,0,2.6981,2.7035,2.709,2.7127,2.7154,2.7213,2.7251,2.7265,2.7304,2.7361,2.7403,2.7466,2.7517,2.762,2.7647,2.7706,2.7702,2.7761,2.771,2.7708,2.7702,2.7698,2.7704,2.777,2.7772,2.7773,2.7774,0,2.7107,2.7116,2.7171,2.723,2.7276,2.7323,2.7368,2.7399,2.7419,2.7464,2.753,2.757,2.7649,2.7712,2.7772,2.7798,2.779,2.7791,2.7806,2.7804,2.7796,2.7801,2.7627,2.7785,2.7784,2.7783,2.7783,2.7782,2.7196,2.7244,2.7291,2.7353,2.7389,2.7433,2.7481,2.7507,2.7562,2.7628,2.7633,2.7705,2.7751,2.7831,2.7861,2.7917,2.7899,2.7922,2.7928,2.7933,2.7937,2.7788,2.7928,2.7928,2.7927,2.7927,2.7927,0,2.7322,2.7352,2.7409,2.7474,2.7523,2.7514,2.7564,2.7605,2.7669,2.7713,2.7764,2.7841,2.7903,2.7937,2.7999,2.8037,2.8035,2.8053,2.8049,2.8056,2.795,2.793,2.8054,2.8054,2.8054,2.8054,2.8054,2.8053,2.7393,2.7475,2.749,2.759,2.762,2.7691,2.772,2.7761,2.7796,2.7882,2.7934,2.7957,2.7997,2.8062,2.8119,2.8127,2.815,2.817,2.8176,2.8076,2.8063,2.805,2.8031,2.8175,2.8175,2.8277,2.8278,2.8279]}]]